�v������,���r���O(���x),�����t���O,���r���O(���x),�����t���O,��1(���x),�����t���O,��2���x),�����t���O,�������x,�����t���O,�C�ۑ�(���x),�����t���O,�C�ۑ�(���x),�����t���O
12/1/2002 0:00,17.5,0,71.8,0,14.9,0,22.4,0,13.8,0,11.3,0,84.8,0
12/1/2002 0:15,17.5,0,72.8,0,14.9,0,22.6,0,13.8,0,11.2,0,83.8,0
12/1/2002 0:30,17.6,0,73.2,0,14.8,0,22.7,0,13.8,0,11.2,0,82.8,0
12/1/2002 0:45,17.5,0,71.5,0,14.8,0,22.9,0,13.9,0,11.1,0,81.8,0
12/1/2002 1:00,17.6,0,74.7,0,14.8,0,23,0,13.9,0,11.1,0,80.8,0
12/1/2002 1:15,17.5,0,64.8,0,14.8,0,23,0,13.6,0,11,0,80.8,0
12/1/2002 1:30,17.3,0,68.9,0,14.8,0,22.5,0,14.2,0,10.8,0,80.8,0
12/1/2002 1:45,17.2,0,69.2,0,14.8,0,22,0,14.3,0,10.7,0,80.8,0
12/1/2002 2:00,17.1,0,69.4,0,14.8,0,21.6,0,14.3,0,10.6,0,80.8,0
12/1/2002 2:15,17.1,0,69.4,0,14.8,0,21.3,0,14.3,0,10.6,0,80.1,0
12/1/2002 2:30,17,0,69.4,0,14.8,0,20.9,0,14.3,0,10.6,0,79.3,0
12/1/2002 2:45,16.9,0,69.5,0,14.7,0,20.6,0,14.3,0,10.7,0,78.6,0
12/1/2002 3:00,16.8,0,69.3,0,14.7,0,20.3,0,14.3,0,10.7,0,77.8,0
12/1/2002 3:15,16.7,0,69.3,0,14.7,0,20,0,14.4,0,10.5,0,78.8,0
12/1/2002 3:30,16.6,0,69.3,0,14.7,0,19.8,0,14.4,0,10.3,0,79.8,0
12/1/2002 3:45,16.5,0,69.3,0,14.7,0,19.6,0,14.4,0,10.1,0,80.8,0
12/1/2002 4:00,16.4,0,69.3,0,14.7,0,19.4,0,14.4,0,9.9,0,81.8,0
12/1/2002 4:15,16.3,0,69.2,0,14.7,0,19.2,0,14.4,0,9.9,0,82.1,0
12/1/2002 4:30,16.2,0,69.2,0,14.7,0,19.1,0,14.4,0,9.9,0,82.3,0
12/1/2002 4:45,16.1,0,69.2,0,14.7,0,18.9,0,14.5,0,9.9,0,82.6,0
12/1/2002 5:00,16,0,69.2,0,14.7,0,18.8,0,14.5,0,9.9,0,82.8,0
12/1/2002 5:15,15.9,0,69.1,0,14.6,0,18.6,0,14.5,0,9.8,0,82.8,0
12/1/2002 5:30,15.8,0,69.1,0,14.6,0,18.5,0,14.5,0,9.8,0,82.8,0
12/1/2002 5:45,15.8,0,69.2,0,14.6,0,18.3,0,14.5,0,9.7,0,82.8,0
12/1/2002 6:00,15.7,0,69,0,14.6,0,18.2,0,14.5,0,9.7,0,82.8,0
12/1/2002 6:15,15.6,0,68.9,0,14.6,0,18.1,0,14.6,0,9.6,0,82.6,0
12/1/2002 6:30,15.5,0,69,0,14.6,0,18,0,14.6,0,9.5,0,82.3,0
12/1/2002 6:45,15.5,0,68.9,0,14.6,0,17.9,0,14.6,0,9.5,0,82.1,0
12/1/2002 7:00,15.4,0,68.8,0,14.6,0,17.8,0,14.6,0,9.4,0,81.8,0
12/1/2002 7:15,15.3,0,68.1,0,14.6,0,18,0,13.3,0,9.5,0,81.3,0
12/1/2002 7:30,15.4,0,72.4,0,14.5,0,20.4,0,13.3,0,9.5,0,80.8,0
12/1/2002 7:45,15.6,0,74.9,0,14.5,0,21.5,0,13.4,0,9.6,0,80.3,0
12/1/2002 8:00,16,0,76.4,0,14.5,0,21.9,0,13.5,0,9.7,0,79.8,0
12/1/2002 8:15,16.1,0,72.5,0,14.4,0,21.4,0,13.5,0,9.8,0,80.3,0
12/1/2002 8:30,16.4,0,72.6,0,14.4,0,20.6,0,13.5,0,9.9,0,80.8,0
12/1/2002 8:45,16.6,0,69.8,0,14.3,0,19.9,0,13.5,0,10,0,81.3,0
12/1/2002 9:00,16.7,0,70.3,0,14.3,0,19.4,0,13.9,0,10.1,0,81.8,0
12/1/2002 9:15,16.8,0,68.2,0,14.2,0,18.9,0,13.9,0,10,0,83.6,0
12/1/2002 9:30,16.8,0,71.1,0,14.2,0,18.6,0,13.9,0,10,0,85.3,0
12/1/2002 9:45,16.9,0,71.8,0,14.1,0,18.3,0,13.9,0,9.9,0,87.1,0
12/1/2002 10:00,17.1,0,73.5,0,14.1,0,18.2,0,14.1,0,9.9,0,88.8,0
12/1/2002 10:15,17.2,0,73.1,0,14.1,0,18.1,0,14.1,0,10,0,88.1,0
12/1/2002 10:30,17.2,0,69.5,0,14.1,0,18,0,14.1,0,10,0,87.3,0
12/1/2002 10:45,17.2,0,70.1,0,14.1,0,17.8,0,13.9,0,10.1,0,86.6,0
12/1/2002 11:00,17.1,0,69.4,0,14.2,0,17.6,0,14.2,0,10.2,0,85.8,0
12/1/2002 11:15,17,0,69.7,0,14.2,0,17.3,0,14.2,0,10.2,0,85.8,0
12/1/2002 11:30,17,0,69.9,0,14.2,0,17.1,0,14.2,0,10.1,0,85.8,0
12/1/2002 11:45,16.9,0,69.6,0,14.2,0,16.9,0,14.2,0,10.1,0,85.8,0
12/1/2002 12:00,16.9,0,68.5,0,14.2,0,16.9,0,13.3,0,10.1,0,85.8,0
12/1/2002 12:15,16.7,0,62.6,0,14.2,0,16.7,0,13.3,0,10,0,87.3,0
12/1/2002 12:30,16.5,0,64.2,0,14.2,0,16.7,0,13.3,0,9.8,0,88.8,0
12/1/2002 12:45,16.4,0,67.1,0,14.3,0,18.8,0,13.3,0,9.7,0,90.3,0
12/1/2002 13:00,16.5,0,71.3,0,14.3,0,20.3,0,13.4,0,9.6,0,91.8,0
12/1/2002 13:15,16.6,0,72.6,0,14.3,0,21.1,0,13.4,0,9.6,0,92.6,0
12/1/2002 13:30,16.8,0,73.2,0,14.3,0,21.3,0,13.4,0,9.6,0,93.3,0
12/1/2002 13:45,16.8,0,71.4,0,14.4,0,21.2,0,13.2,0,9.7,0,94.1,0
12/1/2002 14:00,16.8,0,70.9,0,14.4,0,20.6,0,13.2,0,9.7,0,94.8,0
12/1/2002 14:15,16.9,0,70.7,0,14.4,0,20.1,0,13.2,0,9.7,0,94.6,0
12/1/2002 14:30,16.9,0,71.7,0,14.4,0,19.7,0,13.2,0,9.6,0,94.3,0
12/1/2002 14:45,17,0,71.4,0,14.4,0,19.4,0,13.3,0,9.6,0,94.1,0
12/1/2002 15:00,17.1,0,71.2,0,14.4,0,19.1,0,13.3,0,9.6,0,93.8,0
12/1/2002 15:15,17.3,0,71.2,0,14.4,0,18.8,0,13.3,0,9.6,0,93.8,0
12/1/2002 15:30,17.5,0,73.6,0,14.4,0,18.6,0,13.3,0,9.5,0,93.8,0
12/1/2002 15:45,17.6,0,72.7,0,14.3,0,18.4,0,13.5,0,9.5,0,93.8,0
12/1/2002 16:00,17.5,0,68.6,0,14.3,0,18.1,0,13.5,0,9.5,0,93.8,0
12/1/2002 16:15,17.5,0,70.1,0,14.3,0,17.9,0,13.5,0,9.4,0,93.6,0
12/1/2002 16:30,17.6,0,73.4,0,14.3,0,17.8,0,14,0,9.4,0,93.3,0
12/1/2002 16:45,17.7,0,75.4,0,14.3,0,17.6,0,14,0,9.3,0,93.1,0
12/1/2002 17:00,17.8,0,75.5,0,14.3,0,17.4,0,14,0,9.3,0,92.8,0
12/1/2002 17:15,17.9,0,73.8,0,14.2,0,17.3,0,14,0,9.2,0,92.8,0
12/1/2002 17:30,18,0,75,0,14.2,0,17.4,0,14,0,9.2,0,92.8,0
12/1/2002 17:45,18.2,0,85.3,0,14.2,0,17.5,0,14,0,9.1,0,92.8,0
12/1/2002 18:00,18.3,0,83.9,0,14.2,0,17.6,0,13.7,0,9.1,0,92.8,0
12/1/2002 18:15,18.4,0,83,0,14.2,0,18.9,0,13.2,0,9.1,0,92.3,0
12/1/2002 18:30,18.5,0,83.6,0,14.1,0,19.6,0,13.2,0,9,0,91.8,0
12/1/2002 18:45,18.5,0,78,0,14.1,0,20.2,0,13.2,0,9,0,91.3,0
12/1/2002 19:00,18.5,0,79.2,0,14.1,0,20.8,0,13.3,0,9,0,90.8,0
12/1/2002 19:15,18.5,0,80.5,0,14.1,0,21.1,0,13.3,0,8.9,0,91.3,0
12/1/2002 19:30,18.6,0,84.2,0,14.1,0,21.6,0,13.3,0,8.9,0,91.8,0
12/1/2002 19:45,18.8,0,85.8,0,14,0,22,0,13.4,0,8.8,0,92.3,0
12/1/2002 20:00,18.7,0,75.7,0,14,0,21.7,0,13.6,0,8.8,0,92.8,0
12/1/2002 20:15,18.5,0,71.1,0,14.1,0,21.2,0,13.6,0,8.8,0,92.6,0
12/1/2002 20:30,18.4,0,78.4,0,14.1,0,20.9,0,13.6,0,8.9,0,92.3,0
12/1/2002 20:45,18.3,0,78.7,0,14.1,0,20.6,0,13.7,0,8.9,0,92.1,0
12/1/2002 21:00,18.4,0,79.7,0,14.1,0,20.3,0,13.7,0,9,0,91.8,0
12/1/2002 21:15,18.4,0,79.6,0,14.1,0,20,0,13.7,0,8.9,0,92.1,0
12/1/2002 21:30,18.5,0,79.9,0,14.1,0,19.7,0,13.7,0,8.8,0,92.3,0
12/1/2002 21:45,18.5,0,78.9,0,14.1,0,19.5,0,13.7,0,8.7,0,92.6,0
12/1/2002 22:00,18.5,0,78.8,0,14.1,0,19.3,0,13.8,0,8.6,0,92.8,0
12/1/2002 22:15,18.5,0,78.8,0,14,0,19.1,0,13.8,0,8.6,0,92.1,0
12/1/2002 22:30,18.5,0,78,0,14,0,18.9,0,13.8,0,8.6,0,91.3,0
12/1/2002 22:45,18.4,0,77.8,0,14,0,18.8,0,13.8,0,8.6,0,90.6,0
12/1/2002 23:00,18.4,0,78,0,14,0,18.7,0,13.9,0,8.6,0,89.8,0
12/1/2002 23:15,18.3,0,77.8,0,14,0,18.6,0,13.9,0,8.6,0,89.6,0
12/1/2002 23:30,18.3,0,77.4,0,13.9,0,18.5,0,13.3,0,8.6,0,89.3,0
12/1/2002 23:45,18.2,0,77.3,0,13.9,0,18.4,0,13.3,0,8.7,0,89.1,0
12/2/2002 0:00,18.2,0,77.3,0,13.9,0,18.3,0,13.3,0,8.7,0,88.8,0
12/2/2002 0:15,18.2,0,76.9,0,13.9,0,18.3,0,13.4,0,8.7,0,88.3,0
12/2/2002 0:30,18.1,0,71.3,0,13.9,0,18.2,0,13.4,0,8.7,0,87.8,0
12/2/2002 0:45,18,0,74.8,0,13.9,0,18.1,0,13.3,0,8.8,0,87.3,0
12/2/2002 1:00,18.1,0,75.9,0,13.9,0,18,0,13.3,0,8.8,0,86.8,0
12/2/2002 1:15,18,0,68.7,0,13.9,0,17.9,0,13.3,0,8.8,0,86.3,0
12/2/2002 1:30,17.6,0,69.1,0,13.9,0,17.9,0,13.3,0,8.8,0,85.8,0
12/2/2002 1:45,17.3,0,69,0,13.9,0,17.8,0,13.4,0,8.9,0,85.3,0
12/2/2002 2:00,17,0,69.1,0,14,0,17.8,0,13.4,0,8.9,0,84.8,0
12/2/2002 2:15,16.8,0,69.2,0,14,0,17.7,0,13.4,0,8.8,0,85.6,0
12/2/2002 2:30,16.5,0,69.3,0,14,0,17.6,0,13.4,0,8.7,0,86.3,0
12/2/2002 2:45,16.3,0,69.4,0,14,0,17.6,0,13.5,0,8.6,0,87.1,0
12/2/2002 3:00,16.2,0,69.4,0,14,0,17.5,0,13.5,0,8.5,0,87.8,0
12/2/2002 3:15,16,0,69.4,0,14.1,0,17.5,0,13.5,0,8.4,0,87.8,0
12/2/2002 3:30,15.9,0,69.4,0,14.1,0,17.4,0,13.6,0,8.4,0,87.8,0
12/2/2002 3:45,15.7,0,69.4,0,14.1,0,17.3,0,13.6,0,8.3,0,87.8,0
12/2/2002 4:00,15.6,0,69.2,0,14.1,0,17.3,0,13.6,0,8.3,0,87.8,0
12/2/2002 4:15,15.5,0,69.1,0,14.2,0,17.2,0,13.7,0,8.2,0,87.6,0
12/2/2002 4:30,15.4,0,69,0,14.2,0,17.2,0,13.7,0,8.1,0,87.3,0
12/2/2002 4:45,15.3,0,68.9,0,14.2,0,17.1,0,13.7,0,8.1,0,87.1,0
12/2/2002 5:00,15.1,0,68.9,0,14.2,0,17.1,0,13.7,0,8,0,86.8,0
12/2/2002 5:15,15.1,0,69.1,0,14.3,0,18.3,0,13.8,0,8,0,86.6,0
12/2/2002 5:30,15,0,70.2,0,14.3,0,19.4,0,13.8,0,8.1,0,86.3,0
12/2/2002 5:45,14.9,0,69.8,0,14.3,0,20,0,13.8,0,8.1,0,86.1,0
12/2/2002 6:00,14.9,0,69.5,0,14.3,0,20.4,0,13.9,0,8.2,0,85.8,0
12/2/2002 6:15,14.8,0,70,0,14.3,0,20.7,0,13.4,0,8.3,0,85.1,0
12/2/2002 6:30,14.9,0,70.7,0,14.2,0,20.8,0,13.4,0,8.4,0,84.3,0
12/2/2002 6:45,14.9,0,71.4,0,14.2,0,21.1,0,13.4,0,8.5,0,83.6,0
12/2/2002 7:00,15,0,72.5,0,14.1,0,21.4,0,13.4,0,8.6,0,82.8,0
12/2/2002 7:15,15.3,0,73.1,0,14.1,0,21.7,0,13.5,0,8.7,0,82.3,0
12/2/2002 7:30,15.7,0,73.6,0,14.1,0,22.1,0,14,0,8.8,0,81.8,0
12/2/2002 7:45,16.4,0,75.2,0,14.1,0,22.4,0,14,0,8.9,0,81.3,0
12/2/2002 8:00,17,0,68.6,0,14.1,0,22.7,0,14,0,9,0,80.8,0
12/2/2002 8:15,17.4,0,74,0,14.2,0,21.8,0,14,0,9.4,0,79.1,0
12/2/2002 8:30,18.1,0,74.6,0,14.3,0,21.2,0,14,0,9.8,0,77.3,0
12/2/2002 8:45,18.6,0,73.8,0,14.4,0,20.7,0,14.1,0,10.3,0,75.6,0
12/2/2002 9:00,19.1,0,72.9,0,14.6,0,20.2,0,14.1,0,10.7,0,73.8,0
12/2/2002 9:15,19.5,0,72,0,14.7,0,19.8,0,14.1,0,11.1,0,72.6,0
12/2/2002 9:30,19.6,0,60.6,0,14.8,0,19.6,0,14.1,0,11.5,0,71.3,0
12/2/2002 9:45,18.6,0,51.2,0,14.9,0,19.2,0,14.1,0,12,0,70.1,0
12/2/2002 10:00,18,0,54.1,0,15,0,18.9,0,13.6,0,12.4,0,68.8,0
12/2/2002 10:15,17.5,0,54.5,0,15.1,0,18.9,0,13.7,0,12.5,0,68.1,0
12/2/2002 10:30,17.2,0,53.7,0,15.2,0,19,0,13.7,0,12.6,0,67.3,0
12/2/2002 10:45,17,0,54.7,0,15.4,0,19.1,0,13.7,0,12.8,0,66.6,0
12/2/2002 11:00,16.8,0,52.4,0,15.5,0,19.1,0,13.7,0,12.9,0,65.8,0
12/2/2002 11:15,16.9,0,55.5,0,15.6,0,19.1,0,13.2,0,13,0,65.1,0
12/2/2002 11:30,17.3,0,57,0,15.7,0,19.1,0,13.2,0,13.1,0,64.3,0
12/2/2002 11:45,17.7,0,57.1,0,15.9,0,19.2,0,13.2,0,13.3,0,63.6,0
12/2/2002 12:00,18.1,0,56,0,16.1,0,19.3,0,13.3,0,13.4,0,62.8,0
12/2/2002 12:15,18.3,0,58.6,0,16.2,0,19.4,0,13.3,0,13.6,0,61.8,0
12/2/2002 12:30,18.5,0,55.8,0,16.2,0,19.3,0,14.1,0,13.8,0,60.8,0
12/2/2002 12:45,18.5,0,58.4,0,16.3,0,19.2,0,14.1,0,14.1,0,59.8,0
12/2/2002 13:00,18.6,0,55.2,0,16.3,0,19,0,13.6,0,14.3,0,58.8,0
12/2/2002 13:15,18.4,0,54.2,0,16.2,0,18.9,0,13.6,0,14.4,0,56,0
12/2/2002 13:30,18.4,0,58.9,0,16.2,0,18.8,0,13.7,0,14.4,0,53.3,0
12/2/2002 13:45,18.6,0,61.2,0,16.1,0,18.6,0,13.7,0,14.5,0,50.5,0
12/2/2002 14:00,18.7,0,60.9,0,16.1,0,18.4,0,13.7,0,14.6,0,47.8,0
12/2/2002 14:15,18.9,0,63.9,0,16.1,0,18.3,0,13.3,0,14.4,0,49,0
12/2/2002 14:30,19,0,68.1,0,16,0,18.1,0,13.3,0,14.2,0,50.3,0
12/2/2002 14:45,19.1,0,68.7,0,15.9,0,17.9,0,13.4,0,14.1,0,51.5,0
12/2/2002 15:00,19.1,0,67.1,0,15.9,0,17.9,0,13.4,0,13.9,0,52.8,0
12/2/2002 15:15,18.8,0,62.1,0,15.9,0,17.9,0,13.4,0,13.6,0,55.5,0
12/2/2002 15:30,18.8,0,63.2,0,15.9,0,17.8,0,13.8,0,13.3,0,58.3,0
12/2/2002 15:45,18.7,0,63.1,0,15.9,0,17.8,0,13.9,0,13.1,0,61,0
12/2/2002 16:00,18.6,0,62.6,0,15.9,0,17.7,0,14,0,12.8,0,63.8,0
12/2/2002 16:15,18.6,0,63.9,0,15.9,0,17.6,0,14,0,12.6,0,64.1,0
12/2/2002 16:30,18.6,0,65.4,0,15.8,0,17.6,0,14,0,12.3,0,64.3,0
12/2/2002 16:45,18.7,0,67.7,0,15.8,0,17.5,0,14,0,12.1,0,64.6,0
12/2/2002 17:00,18.8,0,65.7,0,15.8,0,17.4,0,14.1,0,11.9,0,64.8,0
12/2/2002 17:15,18.9,0,69.7,0,15.7,0,17.3,0,14.1,0,11.7,0,66.3,0
12/2/2002 17:30,19.5,0,69.7,0,15.7,0,17.3,0,14.1,0,11.6,0,67.8,0
12/2/2002 17:45,19.5,0,62.3,0,15.7,0,17.2,0,13.8,0,11.4,0,69.3,0
12/2/2002 18:00,19.2,0,64.5,0,15.6,0,17.2,0,13.8,0,11.3,0,70.8,0
12/2/2002 18:15,19.3,0,71.4,0,15.6,0,17.1,0,13.8,0,11.1,0,71.6,0
12/2/2002 18:30,19.3,0,75.8,0,15.5,0,17,0,13.8,0,10.8,0,72.3,0
12/2/2002 18:45,19.5,0,78.8,0,15.5,0,17,0,13.9,0,10.6,0,73.1,0
12/2/2002 19:00,19.7,0,87.7,0,15.4,0,16.9,0,13.9,0,10.4,0,73.8,0
12/2/2002 19:15,20.1,0,90.9,0,15.4,0,16.9,0,13.9,0,10.4,0,73.8,0
12/2/2002 19:30,20.3,0,68.9,0,15.3,0,16.8,0,14,0,10.3,0,73.8,0
12/2/2002 19:45,20.4,0,79.9,0,15.3,0,16.9,0,14,0,10.3,0,73.8,0
12/2/2002 20:00,20.4,0,79.2,0,15.3,0,16.8,0,14,0,10.3,0,73.8,0
12/2/2002 20:15,20.2,0,75.8,0,15.5,0,16.8,0,14.2,0,10.2,0,73.6,0
12/2/2002 20:30,19.9,0,69,0,15.6,0,16.7,0,14.2,0,10.1,0,73.3,0
12/2/2002 20:45,19.8,0,72.6,0,15.6,0,16.7,0,14.2,0,10.1,0,73.1,0
12/2/2002 21:00,19.9,0,79.9,0,15.6,0,16.7,0,14.2,0,10,0,72.8,0
12/2/2002 21:15,20.1,0,83.9,0,15.6,0,18.6,0,14.2,0,9.8,0,74.1,0
12/2/2002 21:30,20.3,0,82.1,0,15.5,0,19.5,0,14.3,0,9.6,0,75.3,0
12/2/2002 21:45,20.3,0,81.3,0,15.5,0,19.8,0,14.3,0,9.5,0,76.6,0
12/2/2002 22:00,20.3,0,80.3,0,15.5,0,20.3,0,14.3,0,9.3,0,77.8,0
12/2/2002 22:15,20.3,0,78.8,0,15.4,0,20.7,0,14.4,0,9.2,0,78.1,0
12/2/2002 22:30,20.1,0,77.3,0,15.4,0,21.1,0,14.4,0,9.1,0,78.3,0
12/2/2002 22:45,20,0,76,0,15.3,0,21.5,0,14.4,0,9.1,0,78.6,0
12/2/2002 23:00,19.9,0,76.1,0,15.3,0,21.8,0,14.4,0,9,0,78.8,0
12/2/2002 23:15,19.8,0,75.9,0,15.2,0,22.3,0,14.5,0,8.8,0,79.3,0
12/2/2002 23:30,19.7,0,75.4,0,15.2,0,22.4,0,14.5,0,8.6,0,79.8,0
12/2/2002 23:45,19.3,0,63.5,0,15.1,0,21.8,0,13.6,0,8.5,0,80.3,0
12/3/2002 0:00,19.1,0,66.3,0,15.1,0,21.4,0,13.6,0,8.3,0,80.8,0
12/3/2002 0:15,19,0,71.1,0,15.1,0,21,0,13.6,0,8.2,0,80.3,0
12/3/2002 0:30,18.8,0,71.4,0,15,0,20.6,0,13.7,0,8.1,0,79.8,0
12/3/2002 0:45,18.7,0,71.6,0,15,0,20.3,0,13.7,0,8.1,0,79.3,0
12/3/2002 1:00,18.5,0,71.6,0,14.9,0,20,0,13.7,0,8,0,78.8,0
12/3/2002 1:15,18.4,0,71.6,0,14.9,0,19.7,0,13.7,0,7.8,0,78.8,0
12/3/2002 1:30,18.2,0,71.7,0,14.9,0,19.5,0,13.8,0,7.7,0,78.8,0
12/3/2002 1:45,18,0,71.7,0,14.8,0,19.3,0,13.8,0,7.5,0,78.8,0
12/3/2002 2:00,17.9,0,71.6,0,14.8,0,19,0,13.8,0,7.4,0,78.8,0
12/3/2002 2:15,17.7,0,71.5,0,14.8,0,18.8,0,13.9,0,7.3,0,78.8,0
12/3/2002 2:30,17.6,0,71.4,0,14.8,0,18.6,0,13.9,0,7.2,0,78.8,0
12/3/2002 2:45,17.4,0,71.2,0,14.7,0,18.4,0,13.9,0,7.1,0,78.8,0
12/3/2002 3:00,17.2,0,71.2,0,14.7,0,18.3,0,14,0,7,0,78.8,0
12/3/2002 3:15,17.1,0,71.2,0,14.7,0,18.1,0,14,0,7,0,78.1,0
12/3/2002 3:30,16.9,0,71.1,0,14.7,0,17.9,0,14,0,6.9,0,77.3,0
12/3/2002 3:45,16.7,0,71,0,14.6,0,17.8,0,14,0,6.9,0,76.6,0
12/3/2002 4:00,16.6,0,71,0,14.6,0,17.6,0,14.1,0,6.9,0,75.8,0
12/3/2002 4:15,16.4,0,70.9,0,14.5,0,17.5,0,14.1,0,6.8,0,76.3,0
12/3/2002 4:30,16.2,0,70.9,0,14.5,0,17.4,0,14.1,0,6.7,0,76.8,0
12/3/2002 4:45,16.1,0,70.9,0,14.4,0,17.2,0,14.1,0,6.6,0,77.3,0
12/3/2002 5:00,15.9,0,70.9,0,14.4,0,17.1,0,14.2,0,6.5,0,77.8,0
12/3/2002 5:15,15.8,0,70.8,0,14.3,0,16.9,0,14.2,0,6.4,0,78.1,0
12/3/2002 5:30,15.6,0,70.8,0,14.2,0,16.8,0,14.2,0,6.3,0,78.3,0
12/3/2002 5:45,15.4,0,70.8,0,14.2,0,16.6,0,14.2,0,6.3,0,78.6,0
12/3/2002 6:00,15.3,0,70.8,0,14.1,0,16.5,0,14.2,0,6.2,0,78.8,0
12/3/2002 6:15,15.1,0,69.7,0,14,0,18.6,0,14.2,0,6.2,0,78.6,0
12/3/2002 6:30,15.4,0,73.7,0,14,0,20.2,0,14.2,0,6.2,0,78.3,0
12/3/2002 6:45,15.9,0,75.1,0,13.9,0,21.3,0,14.3,0,6.2,0,78.1,0
12/3/2002 7:00,16.7,0,76.3,0,13.9,0,21.6,0,13.1,0,6.2,0,77.8,0
12/3/2002 7:15,17.2,0,79.2,0,13.8,0,21.8,0,13.4,0,6.5,0,76.1,0
12/3/2002 7:30,17.7,0,80.7,0,13.8,0,22,0,13.4,0,6.8,0,74.3,0
12/3/2002 7:45,18,0,77.5,0,13.7,0,22.2,0,13.4,0,7.2,0,72.6,0
12/3/2002 8:00,18.3,0,75.2,0,13.7,0,22.5,0,13.4,0,7.5,0,70.8,0
12/3/2002 8:15,17.9,0,63,0,13.7,0,21.4,0,13.4,0,7.9,0,69.3,0
12/3/2002 8:30,18.2,0,70.7,0,13.9,0,20.5,0,13.5,0,8.3,0,67.8,0
12/3/2002 8:45,18.7,0,73,0,13.9,0,19.7,0,13.5,0,8.7,0,66.3,0
12/3/2002 9:00,19.2,0,73.7,0,13.9,0,19.1,0,13.5,0,9.1,0,64.8,0
12/3/2002 9:15,19.3,0,72.6,0,13.9,0,18.6,0,13,0,9.7,0,64.3,0
12/3/2002 9:30,19.4,0,71.7,0,14,0,18.2,0,13.7,0,10.3,0,63.8,0
12/3/2002 9:45,19.4,0,74,0,13.9,0,19.1,0,13.7,0,11,0,63.3,0
12/3/2002 10:00,19.6,0,74,0,13.9,0,19.9,0,13.7,0,11.6,0,62.8,0
12/3/2002 10:15,19.8,0,71.8,0,13.9,0,20.7,0,13.4,0,11.9,0,62,0
12/3/2002 10:30,20,0,71.2,0,14.1,0,21.5,0,13.4,0,12.3,0,61.3,0
12/3/2002 10:45,20,0,66.1,0,14.1,0,21.5,0,13.4,0,12.6,0,60.5,0
12/3/2002 11:00,19.3,0,53.4,0,14.1,0,21.5,0,13.2,0,13,0,59.8,0
12/3/2002 11:15,19.3,0,62,0,14.2,0,21.6,0,13.2,0,13.2,0,59,0
12/3/2002 11:30,19.5,0,62.9,0,14.3,0,21.7,0,13.2,0,13.3,0,58.3,0
12/3/2002 11:45,19.6,0,63.1,0,14.4,0,21.9,0,13.2,0,13.5,0,57.5,0
12/3/2002 12:00,19.7,0,63.2,0,14.5,0,21.8,0,13.2,0,13.7,0,56.8,0
12/3/2002 12:15,19.2,0,53.7,0,14.6,0,21.8,0,13.2,0,13.7,0,56.8,0
12/3/2002 12:30,19.2,0,57.2,0,14.6,0,21.7,0,12.9,0,13.7,0,56.8,0
12/3/2002 12:45,19.4,0,66.2,0,14.7,0,21.6,0,12.9,0,13.7,0,56.8,0
12/3/2002 13:00,19.6,0,66.4,0,14.7,0,21.6,0,12.9,0,13.7,0,56.8,0
12/3/2002 13:15,19.7,0,66.5,0,14.7,0,21.4,0,13,0,13.9,0,56.5,0
12/3/2002 13:30,19.8,0,67.5,0,14.8,0,21.3,0,13.3,0,14,0,56.3,0
12/3/2002 13:45,19.8,0,65.4,0,14.8,0,21.1,0,13.3,0,14.2,0,56,0
12/3/2002 14:00,19.8,0,67.6,0,14.8,0,21,0,13.3,0,14.4,0,55.8,0
12/3/2002 14:15,19.8,0,67.2,0,14.8,0,20.8,0,13.2,0,14.3,0,56.3,0
12/3/2002 14:30,19.6,0,55.6,0,14.8,0,20.6,0,13.5,0,14.2,0,56.8,0
12/3/2002 14:45,19.5,0,63.7,0,14.9,0,20.5,0,13.5,0,14.1,0,57.3,0
12/3/2002 15:00,19.5,0,64.9,0,14.9,0,20.3,0,13.5,0,14,0,57.8,0
12/3/2002 15:15,19.5,0,64.8,0,14.9,0,20.1,0,13.5,0,13.8,0,58.8,0
12/3/2002 15:30,19.4,0,65,0,15,0,20,0,13.5,0,13.7,0,59.8,0
12/3/2002 15:45,19.3,0,66.2,0,15,0,19.8,0,13.5,0,13.5,0,60.8,0
12/3/2002 16:00,19.3,0,66.2,0,15,0,19.7,0,13.5,0,13.4,0,61.8,0
12/3/2002 16:15,19.3,0,68.8,0,15.1,0,19.6,0,13.8,0,13.2,0,62.3,0
12/3/2002 16:30,19.3,0,69.8,0,15.1,0,19.5,0,13.8,0,13.1,0,62.8,0
12/3/2002 16:45,19.3,0,62.7,0,15.1,0,19.4,0,13.8,0,12.9,0,63.3,0
12/3/2002 17:00,19.3,0,70,0,15.1,0,19.3,0,13.6,0,12.8,0,63.8,0
12/3/2002 17:15,19.4,0,70,0,15.1,0,19.3,0,13.6,0,12.5,0,64.3,0
12/3/2002 17:30,18.6,0,55.3,0,15.1,0,19.3,0,13.7,0,12.3,0,64.8,0
12/3/2002 17:45,18.5,0,63.6,0,15.1,0,19.4,0,13.7,0,12,0,65.3,0
12/3/2002 18:00,18.6,0,66.6,0,15,0,19.3,0,13.7,0,11.8,0,65.8,0
12/3/2002 18:15,18.7,0,70.5,0,15,0,19.3,0,13.7,0,11.6,0,66.3,0
12/3/2002 18:30,18.9,0,69.4,0,15,0,20.5,0,13.7,0,11.3,0,66.8,0
12/3/2002 18:45,18.9,0,69.4,0,15,0,21.3,0,13.8,0,11.1,0,67.3,0
12/3/2002 19:00,19.5,0,81.1,0,14.9,0,21.9,0,13.8,0,10.9,0,67.8,0
12/3/2002 19:15,20.1,0,80.3,0,15,0,22.3,0,13.8,0,10.7,0,68.3,0
12/3/2002 19:30,20.5,0,77.5,0,15.5,0,22.7,0,13.8,0,10.6,0,68.8,0
12/3/2002 19:45,20.7,0,71.6,0,16,0,22,0,13.8,0,10.4,0,69.3,0
12/3/2002 20:00,20.6,0,70.3,0,16.5,0,21.7,0,13.8,0,10.3,0,69.8,0
12/3/2002 20:15,20.5,0,71.8,0,17.1,0,21.5,0,13.8,0,10.3,0,70.3,0
12/3/2002 20:30,20.4,0,71.7,0,17.6,0,21.4,0,13.9,0,10.2,0,70.8,0
12/3/2002 20:45,20.3,0,70.8,0,18.2,0,22,0,13.9,0,10.2,0,71.3,0
12/3/2002 21:00,20.1,0,70.7,0,18.6,0,22.5,0,13.9,0,10.2,0,71.8,0
12/3/2002 21:15,19.9,0,70.7,0,19.1,0,22.9,0,13.9,0,10.1,0,72.3,0
12/3/2002 21:30,19.7,0,70.8,0,19.4,0,23.3,0,13.9,0,10,0,72.8,0
12/3/2002 21:45,19.6,0,70.7,0,19.8,0,23.6,0,14,0,10,0,73.3,0
12/3/2002 22:00,19.4,0,70.4,0,19.9,0,23.7,0,13.3,0,9.9,0,73.8,0
12/3/2002 22:15,19.3,0,72.1,0,19.8,0,23.2,0,13.4,0,9.9,0,74.1,0
12/3/2002 22:30,19.2,0,68.3,0,19.5,0,22.7,0,13.4,0,10,0,74.3,0
12/3/2002 22:45,19.1,0,70.3,0,19.3,0,22.2,0,13.4,0,10,0,74.6,0
12/3/2002 23:00,19.2,0,73.1,0,19.1,0,21.8,0,13.4,0,10.1,0,74.8,0
12/3/2002 23:15,19.3,0,73.1,0,18.9,0,21.5,0,13.5,0,10.2,0,74.8,0
12/3/2002 23:30,19.2,0,72.6,0,18.7,0,21.1,0,13.5,0,10.3,0,74.8,0
12/3/2002 23:45,19.2,0,72.5,0,18.5,0,20.8,0,13.5,0,10.4,0,74.8,0
12/4/2002 0:00,19,0,67.9,0,18.3,0,20.5,0,13.6,0,10.5,0,74.8,0
12/4/2002 0:15,18.4,0,65,0,18.1,0,20.3,0,13.6,0,10.5,0,73.8,0
12/4/2002 0:30,18.4,0,67.9,0,18,0,20.1,0,13.6,0,10.5,0,72.8,0
12/4/2002 0:45,18.4,0,69.7,0,17.9,0,19.9,0,13.7,0,10.5,0,71.8,0
12/4/2002 1:00,18.4,0,66.5,0,17.7,0,19.8,0,13.6,0,10.5,0,70.8,0
12/4/2002 1:15,18.4,0,69.2,0,17.6,0,19.6,0,13.6,0,10.2,0,73.3,0
12/4/2002 1:30,18.3,0,69.6,0,17.5,0,19.5,0,13.6,0,9.9,0,75.8,0
12/4/2002 1:45,18.3,0,69.6,0,17.4,0,19.4,0,13.6,0,9.7,0,78.3,0
12/4/2002 2:00,18.2,0,69.6,0,17.3,0,19.2,0,13.7,0,9.4,0,80.8,0
12/4/2002 2:15,18.2,0,69.6,0,17.3,0,19.1,0,13.7,0,9.4,0,81.1,0
12/4/2002 2:30,18.1,0,69.6,0,17.2,0,19,0,13.7,0,9.3,0,81.3,0
12/4/2002 2:45,18,0,69.7,0,17.2,0,18.9,0,13.7,0,9.3,0,81.6,0
12/4/2002 3:00,17.9,0,69.8,0,17.1,0,18.8,0,13.8,0,9.3,0,81.8,0
12/4/2002 3:15,17.8,0,69.8,0,17.1,0,18.6,0,13.8,0,9.1,0,83.3,0
12/4/2002 3:30,17.7,0,69.8,0,17,0,18.5,0,13.8,0,9,0,84.8,0
12/4/2002 3:45,17.6,0,69.9,0,16.9,0,18.4,0,13.9,0,8.8,0,86.3,0
12/4/2002 4:00,17.5,0,69.9,0,16.9,0,18.3,0,13.9,0,8.7,0,87.8,0
12/4/2002 4:15,17.4,0,69.9,0,16.9,0,18.2,0,13.9,0,8.6,0,88.8,0
12/4/2002 4:30,17.3,0,69.9,0,16.8,0,18.2,0,13.9,0,8.4,0,89.8,0
12/4/2002 4:45,17.2,0,69.9,0,16.8,0,18.1,0,13.9,0,8.3,0,90.8,0
12/4/2002 5:00,17.1,0,70,0,16.7,0,18,0,14,0,8.2,0,91.8,0
12/4/2002 5:15,16.9,0,67.3,0,16.7,0,19,0,13.2,0,8.2,0,92.1,0
12/4/2002 5:30,16.6,0,63.5,0,16.6,0,19.7,0,13.2,0,8.2,0,92.3,0
12/4/2002 5:45,16.3,0,66.1,0,16.5,0,20.4,0,13.2,0,8.2,0,92.6,0
12/4/2002 6:00,16,0,65.8,0,16.5,0,20.7,0,13.3,0,8.2,0,92.8,0
12/4/2002 6:15,16.5,0,70.8,0,16.4,0,21.1,0,13.3,0,8.2,0,92.8,0
12/4/2002 6:30,17,0,71.2,0,16.4,0,21.5,0,13.3,0,8.2,0,92.8,0
12/4/2002 6:45,17.4,0,71.4,0,16.3,0,21.9,0,13.3,0,8.2,0,92.8,0
12/4/2002 7:00,17.6,0,71.6,0,16.3,0,22.2,0,13.4,0,8.2,0,92.8,0
12/4/2002 7:15,17.8,0,70.8,0,16.3,0,22.3,0,13.2,0,8.4,0,92.6,0
12/4/2002 7:30,18.2,0,75.2,0,16.2,0,22.7,0,13.3,0,8.5,0,92.3,0
12/4/2002 7:45,18.5,0,74.1,0,16.1,0,23,0,13.3,0,8.7,0,92.1,0
12/4/2002 8:00,18.8,0,75.3,0,16.1,0,23.1,0,13.3,0,8.9,0,91.8,0
12/4/2002 8:15,19.2,0,77.2,0,16.1,0,22.1,0,13.6,0,9.1,0,91.3,0
12/4/2002 8:30,19.5,0,75.8,0,16,0,21.3,0,13.6,0,9.2,0,90.8,0
12/4/2002 8:45,19.8,0,75.6,0,16,0,20.6,0,13.6,0,9.4,0,90.3,0
12/4/2002 9:00,19.6,0,60.2,0,15.9,0,19.9,0,13.4,0,9.6,0,89.8,0
12/4/2002 9:15,19.6,0,70.1,0,15.9,0,19.6,0,13.4,0,9.7,0,89.6,0
12/4/2002 9:30,18.9,0,62,0,15.9,0,19.2,0,13.4,0,9.7,0,89.3,0
12/4/2002 9:45,18.4,0,61,0,15.9,0,18.9,0,13.4,0,9.8,0,89.1,0
12/4/2002 10:00,18.1,0,64.5,0,15.9,0,18.7,0,13.5,0,9.9,0,88.8,0
12/4/2002 10:15,18.1,0,66.3,0,16.1,0,18.5,0,13.5,0,9.9,0,89.6,0
12/4/2002 10:30,18.1,0,68.1,0,16,0,18.3,0,13.5,0,9.9,0,90.3,0
12/4/2002 10:45,17.9,0,62.9,0,15.9,0,18.2,0,13.1,0,9.9,0,91.1,0
12/4/2002 11:00,17.6,0,64.2,0,15.9,0,18.1,0,13.1,0,9.9,0,91.8,0
12/4/2002 11:15,17.2,0,63.4,0,15.9,0,18,0,13.2,0,9.8,0,91.8,0
12/4/2002 11:30,16.9,0,64.4,0,15.8,0,17.8,0,13.2,0,9.8,0,91.8,0
12/4/2002 11:45,16.7,0,64.8,0,15.8,0,17.7,0,13.2,0,9.7,0,91.8,0
12/4/2002 12:00,16.5,0,65.3,0,15.8,0,17.5,0,13.2,0,9.7,0,91.8,0
12/4/2002 12:15,16.3,0,65.4,0,15.7,0,17.3,0,13.3,0,9.7,0,92.6,0
12/4/2002 12:30,16.1,0,65.7,0,15.7,0,17.2,0,13.3,0,9.7,0,93.3,0
12/4/2002 12:45,16,0,66.3,0,15.6,0,17.1,0,12.9,0,9.8,0,94.1,0
12/4/2002 13:00,16.2,0,70.8,0,15.5,0,16.9,0,13,0,9.8,0,94.8,0
12/4/2002 13:15,16.6,0,75.9,0,15.5,0,16.8,0,13,0,10,0,95.1,0
12/4/2002 13:30,16.9,0,78,0,15.4,0,16.7,0,13,0,10.2,0,95.3,0
12/4/2002 13:45,17.1,0,79.2,0,15.4,0,16.6,0,13.6,0,10.5,0,95.6,0
12/4/2002 14:00,17.3,0,79.6,0,15.3,0,16.5,0,13.6,0,10.7,0,95.8,0
12/4/2002 14:15,17.5,0,79,0,15.2,0,16.4,0,13.6,0,10.7,0,96.1,0
12/4/2002 14:30,17.6,0,77.5,0,15.2,0,16.3,0,13.7,0,10.7,0,96.3,0
12/4/2002 14:45,18.1,0,75.8,0,15.2,0,16.3,0,13.7,0,10.7,0,96.6,0
12/4/2002 15:00,18.5,0,73.9,0,15.2,0,16.2,0,13.7,0,10.7,0,96.8,0
12/4/2002 15:15,18.9,0,74,0,15.1,0,16.2,0,13.7,0,10.6,0,97.1,0
12/4/2002 15:30,18.8,0,67.3,0,15.1,0,16.2,0,13.4,0,10.6,0,97.3,0
12/4/2002 15:45,19.2,0,68.8,0,15.1,0,16.1,0,13.7,0,10.5,0,97.6,0
12/4/2002 16:00,19.5,0,70.4,0,15.4,0,16.1,0,13.7,0,10.5,0,97.8,0
12/4/2002 16:15,19.8,0,70.5,0,16.1,0,16,0,13.7,0,10.3,0,97.3,0
12/4/2002 16:30,19.7,0,59.7,0,16.9,0,15.9,0,13.7,0,10.1,0,96.8,0
12/4/2002 16:45,19,0,62.3,0,17.6,0,15.8,0,13.7,0,10,0,96.3,0
12/4/2002 17:00,19.3,0,69.3,0,18,0,15.8,0,13.8,0,9.8,0,95.8,0
12/4/2002 17:15,19.3,0,69.8,0,18,0,15.9,0,13.8,0,10,0,96.1,0
12/4/2002 17:30,19.9,0,78.7,0,18.2,0,15.9,0,13.8,0,10.2,0,96.3,0
12/4/2002 17:45,20.6,0,83.9,0,18.4,0,15.8,0,13.8,0,10.4,0,96.6,0
12/4/2002 18:00,21.2,0,85.4,0,18.3,0,15.8,0,13.8,0,10.6,0,96.8,0
12/4/2002 18:15,21.2,0,78.3,0,18.2,0,15.7,0,13.9,0,10.4,0,96.8,0
12/4/2002 18:30,21.1,0,75.7,0,18,0,15.6,0,13.4,0,10.1,0,96.8,0
12/4/2002 18:45,20.8,0,74.4,0,17.8,0,15.6,0,13.4,0,9.9,0,96.8,0
12/4/2002 19:00,20.6,0,75.7,0,17.6,0,15.5,0,13.4,0,9.7,0,96.8,0
12/4/2002 19:15,20.5,0,76.7,0,17.4,0,15.5,0,13.4,0,9.6,0,96.8,0
12/4/2002 19:30,20.4,0,76.9,0,17.2,0,15.4,0,13.5,0,9.5,0,96.8,0
12/4/2002 19:45,20.3,0,77.8,0,17,0,15.3,0,13.5,0,9.4,0,96.8,0
12/4/2002 20:00,20.2,0,77.4,0,16.9,0,15.3,0,13.5,0,9.3,0,96.8,0
12/4/2002 20:15,20,0,77.8,0,17,0,15.2,0,13.5,0,9.3,0,96.6,0
12/4/2002 20:30,19.8,0,75,0,17.3,0,15.2,0,13.5,0,9.3,0,96.3,0
12/4/2002 20:45,19.6,0,76.4,0,17.6,0,15.3,0,13.5,0,9.3,0,96.1,0